sat.trackr.live / text

‹ back to catalog

STARLINK-32120

NORAD 60265 · 2024-131L

PAYLOAD ACTIVE UNKNOWN

§ Identity

Operator
Country
US
Launch date
2024-07-27
Launch site
AFETR
Launch vehicle
Mass (kg)
RCS (m²)

Purposes: comms

External: N2YO · Heavens-Above · Gunter

§ Orbital elements

Epoch: 2026-05-25T04:01:13.111104Z

Period
94.16 min
Inclination
53.1621°
Eccentricity
0.0001286
Mean motion
15.29364617 rev/d
Perigee alt
476.8 km
Apogee alt
478.6 km
Semi-major
6,855.8 km
B*
3.8642e-5
RAAN
57.4892°
Arg perigee
79.1277°
Mean anomaly
280.9868°
Rev number
10,347

§ Raw data

STARLINK-321201 60265U 24131L   26145.16751286  .00000760  00000+0  38642-4 0  99932 60265  53.1621  57.4892 0001286  79.1277 280.9868 15.29364617103474

JSON: /api/v1/satellites/60265 · /tle

For live sub-satellite position, see the globe view (requires WebGL).

§ Visibility from observer

Set your observer location to see the next 7 days of passes ≥ 10°. The values pass through the URL so the page stays shareable.

No JS? Fill the form by hand. The geolocation button needs JavaScript.